AMX1045 MMOX-MMMX

Flight info

Callsign AMX1045
Flight time 0h 48m
Altitude 35000
Route MMOX/19 N0456F300 DCT MAXIL UT158 KODEK UT157 LARLO LARL4A MMMX/05R
Aircraft B738/M-VGDW/C

Departure

Time 2026-05-04 04:41
Airport Xoxocotlán International Airport (MMOX)

Arrival

Time 2026-05-04 05:29
Airport Mexico City Benito Juárez International Airport (MMMX)
Time Latitude Longitude Altitude Speed Heading
2026-05-04 04:25 17.00099 -96.72258 5019 ft 0 kts 94°
2026-05-04 04:34 17.00099 -96.72265 5019 ft 2 kts 94°
2026-05-04 04:34 17.00100 -96.72279 5019 ft 0 kts 94°
2026-05-04 04:35 17.00100 -96.72291 5019 ft 2 kts 74°
2026-05-04 04:35 17.00093 -96.72304 5019 ft 2 kts 49°
2026-05-04 04:35 17.00081 -96.72314 5019 ft 2 kts 20°
2026-05-04 04:35 17.00070 -96.72316 5019 ft 0 kts
2026-05-04 04:36 17.00063 -96.72316 5019 ft 0 kts 358°
2026-05-04 04:37 17.00064 -96.72316 5019 ft 1 kts 358°
2026-05-04 04:38 17.00111 -96.72316 5019 ft 10 kts
2026-05-04 04:38 17.00206 -96.72292 5019 ft 17 kts 15°
2026-05-04 04:38 17.00281 -96.72320 5020 ft 13 kts 288°
2026-05-04 04:38 17.00320 -96.72440 5018 ft 20 kts 317°
2026-05-04 04:39 17.00473 -96.72425 5020 ft 25 kts 16°
2026-05-04 04:39 17.00643 -96.72375 5023 ft 24 kts 16°
2026-05-04 04:39 17.00793 -96.72338 5025 ft 16 kts 347°
2026-05-04 04:39 17.00884 -96.72365 5025 ft 11 kts 10°
2026-05-04 04:40 17.00908 -96.72334 5025 ft 4 kts 122°
2026-05-04 04:40 17.00855 -96.72313 5025 ft 15 kts 186°
2026-05-04 04:40 17.00593 -96.72387 5022 ft 73 kts 195°
2026-05-04 04:40 16.99861 -96.72601 5010 ft 139 kts 196°
2026-05-04 04:41 16.98760 -96.72920 5095 ft 180 kts 194°
2026-05-04 04:41 16.97540 -96.73299 5749 ft 184 kts 195°
2026-05-04 04:41 16.96326 -96.73673 6459 ft 186 kts 195°
2026-05-04 04:41 16.95074 -96.74047 7033 ft 191 kts 190°
2026-05-04 04:42 16.93690 -96.74241 7389 ft 211 kts 185°
2026-05-04 04:42 16.92180 -96.74472 7906 ft 225 kts 189°
2026-05-04 04:42 16.90600 -96.74839 8428 ft 238 kts 192°
2026-05-04 04:42 16.88935 -96.75280 8855 ft 259 kts 193°
2026-05-04 04:43 16.87114 -96.75765 9424 ft 275 kts 193°
2026-05-04 04:43 16.85220 -96.76261 9994 ft 291 kts 193°
2026-05-04 04:43 16.83181 -96.76789 10584 ft 305 kts 193°
2026-05-04 04:43 16.81077 -96.77332 11090 ft 321 kts 193°
2026-05-04 04:44 16.78842 -96.77908 11597 ft 337 kts 192°
2026-05-04 04:44 16.76470 -96.78268 12018 ft 353 kts 179°
2026-05-04 04:44 16.73994 -96.77979 12480 ft 364 kts 164°
2026-05-04 04:44 16.71595 -96.77073 13206 ft 367 kts 153°
2026-05-04 04:45 16.69345 -96.75804 13904 ft 371 kts 145°
2026-05-04 04:45 16.67354 -96.74091 14604 ft 373 kts 130°
2026-05-04 04:45 16.65849 -96.71882 15275 ft 375 kts 116°
2026-05-04 04:47 16.67450 -96.56444 19069 ft 389 kts 46°
2026-05-04 04:47 16.69511 -96.54668 19750 ft 388 kts 32°
2026-05-04 04:47 16.71946 -96.53362 20304 ft 392 kts 21°
2026-05-04 04:47 16.74560 -96.52577 20867 ft 396 kts 11°
2026-05-04 04:48 16.77323 -96.52321 21497 ft 398 kts
2026-05-04 04:49 16.87646 -96.56583 23550 ft 421 kts 320°
2026-05-04 04:49 16.89666 -96.58870 24058 ft 428 kts 309°
2026-05-04 04:49 16.91256 -96.61472 24581 ft 434 kts 300°
2026-05-04 04:49 16.92476 -96.64394 25049 ft 440 kts 294°
2026-05-04 04:50 16.93602 -96.67364 25563 ft 441 kts 296°
2026-05-04 04:50 16.95007 -96.70219 26035 ft 441 kts 304°
2026-05-04 04:50 16.96808 -96.72775 26497 ft 440 kts 314°
2026-05-04 04:50 16.99004 -96.75001 26953 ft 440 kts 322°
2026-05-04 04:51 17.01452 -96.76945 27401 ft 442 kts 327°
2026-05-04 04:51 17.03996 -96.78746 27925 ft 442 kts 328°
2026-05-04 04:51 17.06619 -96.80534 28305 ft 447 kts 329°
2026-05-04 04:51 17.09201 -96.82294 28783 ft 448 kts 328°
2026-05-04 04:52 17.11829 -96.84113 29170 ft 452 kts 328°
2026-05-04 04:52 17.14463 -96.85967 29513 ft 457 kts 327°
2026-05-04 04:52 17.17100 -96.87856 29973 ft 459 kts 326°
2026-05-04 04:52 17.19747 -96.89773 30507 ft 459 kts 326°
2026-05-04 04:53 17.22380 -96.91695 31008 ft 460 kts 326°
2026-05-04 04:53 17.24982 -96.93604 31535 ft 459 kts 325°
2026-05-04 04:53 17.27586 -96.95525 32036 ft 459 kts 324°
2026-05-04 04:53 17.30186 -96.97446 32555 ft 458 kts 324°
2026-05-04 04:54 17.32799 -96.99379 33115 ft 456 kts 324°
2026-05-04 04:54 17.35385 -97.01293 33616 ft 456 kts 324°
2026-05-04 04:54 17.38029 -97.03254 34151 ft 454 kts 323°
2026-05-04 04:54 17.40580 -97.05148 34806 ft 450 kts 323°
2026-05-04 04:55 17.43140 -97.07050 35386 ft 447 kts 323°
2026-05-04 04:55 17.45684 -97.08940 35442 ft 450 kts 323°
2026-05-04 04:55 17.50770 -97.12717 35453 ft 444 kts 323°
2026-05-04 04:56 17.55801 -97.16451 35427 ft 445 kts 323°
2026-05-04 04:56 17.60766 -97.20322 35419 ft 444 kts 319°
2026-05-04 04:57 17.65299 -97.24693 35424 ft 442 kts 315°
2026-05-04 04:57 17.69675 -97.29208 35443 ft 442 kts 314°
2026-05-04 04:58 17.74061 -97.33725 35442 ft 440 kts 315°
2026-05-04 04:58 17.78477 -97.38232 35421 ft 441 kts 315°
2026-05-04 04:59 17.82868 -97.42687 35403 ft 440 kts 315°
2026-05-04 04:59 17.87258 -97.47128 35388 ft 438 kts 315°
2026-05-04 05:00 17.91649 -97.51574 35390 ft 440 kts 315°
2026-05-04 05:01 17.98259 -97.58273 35376 ft 439 kts 315°
2026-05-04 05:01 18.02632 -97.62706 35359 ft 439 kts 315°
2026-05-04 05:02 18.07040 -97.67176 35351 ft 438 kts 315°
2026-05-04 05:02 18.11423 -97.71627 35349 ft 438 kts 315°
2026-05-04 05:03 18.15790 -97.76067 35333 ft 438 kts 315°
2026-05-04 05:04 18.24540 -97.84972 35327 ft 437 kts 315°
2026-05-04 05:04 18.28907 -97.89423 35333 ft 436 kts 315°
2026-05-04 05:06 18.46335 -98.07198 35359 ft 435 kts 315°
2026-05-04 05:07 18.50666 -98.11628 35223 ft 431 kts 315°
2026-05-04 05:07 18.52811 -98.13822 34925 ft 422 kts 315°
2026-05-04 05:07 18.54867 -98.15929 34631 ft 413 kts 315°
2026-05-04 05:09 18.70050 -98.31645 32316 ft 353 kts 309°
2026-05-04 05:09 18.71374 -98.33772 32057 ft 346 kts 296°
2026-05-04 05:10 18.72198 -98.36118 31800 ft 341 kts 287°
2026-05-04 05:10 18.72732 -98.38548 31527 ft 335 kts 284°
2026-05-04 05:10 18.73173 -98.40948 31321 ft 340 kts 283°
2026-05-04 05:10 18.73610 -98.43414 31042 ft 343 kts 283°
2026-05-04 05:11 18.74053 -98.45915 30740 ft 344 kts 284°
2026-05-04 05:11 18.74497 -98.48395 30432 ft 345 kts 284°
2026-05-04 05:11 18.74941 -98.50842 30126 ft 345 kts 284°
2026-05-04 05:11 18.75401 -98.53348 29820 ft 347 kts 284°
2026-05-04 05:12 18.75861 -98.55863 29540 ft 350 kts 284°
2026-05-04 05:12 18.76315 -98.58366 29231 ft 350 kts 285°
2026-05-04 05:12 18.76769 -98.60875 28920 ft 347 kts 285°
2026-05-04 05:12 18.77222 -98.63378 28615 ft 345 kts 285°
2026-05-04 05:13 18.77677 -98.65871 28309 ft 346 kts 285°
2026-05-04 05:13 18.78132 -98.68368 28008 ft 348 kts 284°
2026-05-04 05:13 18.78587 -98.70871 27715 ft 351 kts 284°
2026-05-04 05:13 18.79045 -98.73389 27415 ft 353 kts 284°
2026-05-04 05:14 18.79511 -98.75946 27083 ft 354 kts 284°
2026-05-04 05:14 18.79971 -98.78474 26708 ft 355 kts 284°
2026-05-04 05:14 18.80443 -98.81047 26253 ft 361 kts 284°
2026-05-04 05:14 18.80954 -98.83691 25492 ft 372 kts 285°
2026-05-04 05:15 18.81508 -98.86345 24803 ft 376 kts 285°
2026-05-04 05:15 18.82080 -98.89002 24344 ft 373 kts 285°
2026-05-04 05:15 18.82658 -98.91673 23847 ft 371 kts 284°
2026-05-04 05:15 18.83229 -98.94324 23405 ft 368 kts 284°
2026-05-04 05:16 18.83788 -98.96932 23023 ft 364 kts 284°
2026-05-04 05:16 18.84335 -98.99508 22524 ft 364 kts 283°
2026-05-04 05:16 18.84856 -99.02124 21643 ft 368 kts 282°
2026-05-04 05:16 18.85333 -99.04789 20711 ft 371 kts 281°
2026-05-04 05:17 18.85789 -99.07450 19781 ft 374 kts 281°
2026-05-04 05:17 18.86246 -99.10149 18849 ft 376 kts 281°
2026-05-04 05:17 18.86743 -99.12821 17924 ft 376 kts 284°
2026-05-04 05:17 18.87506 -99.15483 16978 ft 376 kts 295°
2026-05-04 05:18 18.88757 -99.17873 16079 ft 374 kts 304°
2026-05-04 05:18 18.90251 -99.20077 15173 ft 371 kts 310°
2026-05-04 05:18 18.92161 -99.21867 14260 ft 366 kts 332°
2026-05-04 05:18 18.94534 -99.22619 13564 ft 356 kts 358°
2026-05-04 05:19 18.96865 -99.22163 13235 ft 337 kts 26°
2026-05-04 05:19 18.98616 -99.20657 13200 ft 313 kts 54°
2026-05-04 05:19 18.99611 -99.18713 13208 ft 290 kts 65°
2026-05-04 05:19 19.00389 -99.16818 13217 ft 268 kts 64°
2026-05-04 05:20 19.01190 -99.15060 13405 ft 261 kts 60°
2026-05-04 05:20 19.02092 -99.13388 13652 ft 263 kts 56°
2026-05-04 05:20 19.03130 -99.11802 13998 ft 265 kts 51°
2026-05-04 05:20 19.04297 -99.10320 14028 ft 264 kts 45°
2026-05-04 05:21 19.05618 -99.08954 14048 ft 262 kts 40°
2026-05-04 05:21 19.07050 -99.07762 14052 ft 261 kts 33°
2026-05-04 05:21 19.08583 -99.06760 14052 ft 260 kts 27°
2026-05-04 05:21 19.10239 -99.05956 14050 ft 259 kts 19°
2026-05-04 05:22 19.11971 -99.05401 14051 ft 258 kts 11°
2026-05-04 05:22 19.13736 -99.05080 14057 ft 257 kts
2026-05-04 05:22 19.15538 -99.04833 14085 ft 257 kts
2026-05-04 05:22 19.17304 -99.04689 14065 ft 256 kts
2026-05-04 05:23 19.19065 -99.04778 14062 ft 256 kts 352°
2026-05-04 05:23 19.20837 -99.05199 14008 ft 256 kts 342°
2026-05-04 05:23 19.22466 -99.05939 13796 ft 256 kts 328°
2026-05-04 05:23 19.23862 -99.07098 13579 ft 252 kts 317°
2026-05-04 05:24 19.25007 -99.08482 13357 ft 253 kts 308°
2026-05-04 05:24 19.26052 -99.09988 13005 ft 252 kts 307°
2026-05-04 05:24 19.27082 -99.11472 12655 ft 250 kts 307°
2026-05-04 05:24 19.28130 -99.12946 12273 ft 247 kts 308°
2026-05-04 05:25 19.29150 -99.14359 11903 ft 245 kts 308°
2026-05-04 05:25 19.30186 -99.15784 11528 ft 243 kts 307°
2026-05-04 05:25 19.31212 -99.17199 11150 ft 241 kts 307°
2026-05-04 05:25 19.32297 -99.18538 10757 ft 241 kts 316°
2026-05-04 05:26 19.33712 -99.19441 10378 ft 236 kts 345°
2026-05-04 05:26 19.35296 -99.19412 10070 ft 223 kts 17°
2026-05-04 05:26 19.36638 -99.18770 9939 ft 204 kts 31°
2026-05-04 05:26 19.37705 -99.17810 9739 ft 193 kts 56°
2026-05-04 05:27 19.38367 -99.16595 9443 ft 195 kts 63°
2026-05-04 05:28 19.42689 -99.08607 7411 ft 157 kts 59°
2026-05-04 05:29 19.43236 -99.07629 7347 ft 140 kts 58°
2026-05-04 05:29 19.43582 -99.07020 7339 ft 58 kts 57°
2026-05-04 05:29 19.43758 -99.06703 7339 ft 38 kts 59°
2026-05-04 05:29 19.43778 -99.06601 7336 ft 6 kts 173°
2026-05-04 05:31 19.43265 -99.07140 7338 ft 5 kts 265°
2026-05-04 05:31 19.43259 -99.07212 7338 ft 13 kts 262°
2026-05-04 05:32 19.43211 -99.07330 7338 ft 21 kts 240°
2026-05-04 05:32 19.43128 -99.07476 7344 ft 24 kts 238°
2026-05-04 05:32 19.43031 -99.07642 7345 ft 27 kts 239°
2026-05-04 05:33 19.42732 -99.07870 7343 ft 22 kts 151°
2026-05-04 05:33 19.42615 -99.07831 7342 ft 18 kts 220°
2026-05-04 05:33 19.42539 -99.07957 7342 ft 22 kts 239°
2026-05-04 05:33 19.42483 -99.08057 7344 ft 24 kts 239°
2026-05-04 05:34 19.42364 -99.08208 7343 ft 15 kts 167°
2026-05-04 05:34 19.42305 -99.08190 7343 ft 5 kts 195°
2026-05-04 05:34 19.42252 -99.08208 7343 ft 9 kts 187°
2026-05-04 05:34 19.42194 -99.08167 7343 ft 10 kts 120°
2026-05-04 05:35 19.42162 -99.08109 7343 ft 7 kts 114°
2026-05-04 05:35 19.42176 -99.08068 7343 ft 5 kts 41°
2026-05-04 05:35 19.42192 -99.08057 7343 ft 0 kts 28°